sat.trackr.live / text

‹ back to catalog

HULIANWANG DIGUI-87

NORAD 65995 · 2025-231A

PAYLOAD ACTIVE UNKNOWN

§ Identity

Operator
Country
PRC
Launch date
2025-10-16
Launch site
WSC
Launch vehicle
Mass (kg)
RCS (m²)

External: N2YO · Heavens-Above · Gunter

§ Orbital elements

Epoch: 2026-05-25T00:14:16.719072Z

Period
108.33 min
Inclination
50.0004°
Eccentricity
0.0000820
Mean motion
13.29327366 rev/d
Perigee alt
1,148.7 km
Apogee alt
1,149.9 km
Semi-major
7,527.4 km
B*
3.5388e-5
RAAN
258.9745°
Arg perigee
153.6804°
Mean anomaly
206.4110°
Rev number
2,980

§ Raw data

HULIANWANG DIGUI-871 65995U 25231A   26145.00991573 -.00000108  00000+0  35388-4 0  99992 65995  50.0004 258.9745 0000820 153.6804 206.4110 13.29327366 29807

JSON: /api/v1/satellites/65995 · /tle

For live sub-satellite position, see the globe view (requires WebGL).

§ Visibility from observer

Set your observer location to see the next 7 days of passes ≥ 10°. The values pass through the URL so the page stays shareable.

No JS? Fill the form by hand. The geolocation button needs JavaScript.